Torna al catalogo

PRAETORIAN SDA_504

AttivoPO
NORAD 100062·PAYLOAD·🇺🇸 United States

Lanciato Jul 16, 2026 da Vandenberg Space Force Base

Loading…

Prossimi Passaggi (prossime 24 ore)

TLE

AggiornatoSource: Space-Track

Epoca: Sep 14, 2026, 01:13 UTC

1 A0062U 26163D   26257.05104222  .00000135  00000-0  10743-3 0  9991
2 A0062  81.4763 255.8572 0013823  59.1312 301.1203 13.85340806  8209

Traccia PRAETORIAN SDA_504 in tempo reale con AllMySat

Download on the App Store